Regional Weather Roundup
Issued by NWS

Home | Current Version | Previous Version | Graphics & Text | Print | Product List | Glossary On
Versions: 1 2 3 4 5 6 7 8 9 10 11 12 13 14 15 16 17 18 19 20 21 22 23 24 25 26 27 28 29 30 31 32 33 34 35 36 37 38 39 40 41 42 43 44 45 46 47 48 49 50
000
ASUS43 KLOT 270203
RWRIL

ILLINOIS REGIONAL WEATHER ROUNDUP
NATIONAL WEATHER SERVICE CHICAGO/ROMEOVILLE IL
900 PM CDT TUE JUL 26 2016

NOTE: "FAIR" INDICATES FEW OR NO CLOUDS BELOW 12,000 FEET WITH NO
SIGNIFICANT WEATHER AND/OR OBSTRUCTIONS TO VISIBILITY.

* THESE STATIONS ARE NOT UNDER NWS QUALITY CONTROL. THEY ALSO MAY NOT
  REPORT WEATHER SUCH AS PRECIPITATION OR FOG.

ILZ001-002-007-009-015-016-024-270300-
NORTHWEST ILLINOIS

CITY           SKY/WX    TMP DP  RH WIND       PRES   REMARKS
MOLINE         CLEAR     75  67  76 CALM      30.00F
STERLING*      CLEAR     73  68  84 CALM      30.02S
SAVANNA*       CLEAR     73  70  89 CALM      30.01S
$$

ILZ003-004-008-010-011-017-018-270300-
NORTH CENTRAL ILLINOIS

CITY           SKY/WX    TMP DP  RH WIND       PRES   REMARKS
ROCKFORD       CLEAR     80  65  59 CALM      30.03R HX  82
FREEPORT*      CLEAR     74  67  78 CALM      30.04S
ROCHELLE*      CLEAR     73  69  89 CALM      30.03S
DE KALB*       CLEAR     75  65  70 CALM      30.03S
$$

ILZ005-006-012>014-019>023-270300-
NORTHEAST ILLINOIS

CITY           SKY/WX    TMP DP  RH WIND       PRES   REMARKS
CHICAGO-OHARE  PTCLDY    80  62  54 E6        30.00F HX  81
CHICAGO-MIDWAY MOCLDY    81  61  50 E8        30.00F HX  82
AURORA         PTCLDY    75  69  81 N5        30.01F
LANSING*       CLEAR     77  61  59 E3        30.01F
WAUKEGAN       CLEAR     72  66  81 S3        30.01S
DUPAGE AIRPORT PTCLDY    79  63  57 SE3       30.00F HX  80
KANKAKEE*      CLEAR     76  70  83 S3        30.02S
WHEELING       CLEAR     77  62  59 CALM      30.01F
MORRIS*        CLEAR     74  71  90 CALM      30.00R
NORTHERLY ISL    N/A     75  69  81 S2          N/A
$$

LMZ740>746-270300-
SOUTHERN LAKE MICHIGAN

STATION/POSITION SKY/WX   TEMP    WIND        PRES    VSBY  WAVE
                          AIR SEA DIR/SP/G                  HT/PER
                          (F)     (DEG/KT/KT) (MB)    (MI)  (FT/S)
SOUTHERN BUOY              76 77  170/  2/  2 1015.6          0
WILMETTE HARBOR            75 71  200/  4/  4   N/A           0
HARRISON CRIB              78     110/  4/  4   N/A
BURNHAM HARBOR             74     170/  2       N/A
CALUMET HARBOR             77                   N/A
BURNS HARBOR               77      80/  5/  6 1016.9R
MICHIGAN CITY              77      20/  4/  4   N/A
MICHIGAN CITY 6N           76 77   60/  2/  4   N/A           0
ST. JOSEPH                 77 77  360/  6/  8 1016.0S         0
$$

ILZ025>027-034>036-040-047-049-050-058-095>099-270300-
WEST-CENTRAL ILLINOIS

CITY           SKY/WX    TMP DP  RH WIND       PRES   REMARKS
QUINCY         CLEAR     78  69  73 NE5       29.99F HX  80
GALESBURG*     CLEAR     72  68  88 CALM      30.01S
MACOMB*        CLEAR     74  71  88 CALM      30.03S
JACKSONVILLE*  CLEAR     76  72  89 E5        29.99S
PITTSFIELD*    CLEAR     77  73  85 CALM      30.01R
$$

ILZ028>032-037-038-041>044-048-051>054-059>061-270300-
CENTRAL ILLINOIS

CITY           SKY/WX    TMP DP  RH WIND       PRES   REMARKS
BLOOMINGTON    CLEAR     76  70  82 SW3       30.03S
DECATUR        CLOUDY    75  69  81 NE3       30.01S
PEORIA         PTCLDY    80  71  74 S7        30.00S HX  84
LACON*         PTCLDY    74  70  87 CALM      30.00S
LINCOLN*       CLEAR     76  73  92 CALM      30.00F
SPRINGFIELD    CLEAR     78  71  79 SE5       30.00S HX  80
TAYLORVILLE    CLOUDY    76  70  81 MISG      30.00S
$$

ILZ033-039-045-046-055>057-062-063-270300-
EAST-CENTRAL ILLINOIS

CITY           SKY/WX    TMP DP  RH WIND       PRES   REMARKS
CHAMPAIGN      CLOUDY    74  68  81 E3        30.02R
MATTOON        PTCLDY    75  68  78 CALM      30.00S
PARIS*         CLEAR     71  71  99 CALM      30.02R
$$

ILZ079-100>102-270300-
SOUTHWEST ILLINOIS

CITY           SKY/WX    TMP DP  RH WIND       PRES   REMARKS
ALTON          MOCLDY    75  73  94 CALM      29.98S
BELLEVILLE     CLOUDY    79  77  94 S2        29.97R HX  83
CAHOKIA*       MOCLDY    78  74  87 CALM      29.97R HX  81
SPARTA*        CLOUDY    76  73  92 CALM      30.00R
$$

ILZ064>066-069>071-074>076-080>082-084>086-088>090-092>094-270300-
SOUTH-CENTRAL ILLINOIS

CITY           SKY/WX    TMP DP  RH WIND       PRES   REMARKS
CARBONDALE     CLOUDY    76  74  93 S3        29.99R
CAIRO*         CLOUDY    74  74  99 CALM      29.99R
EFFINGHAM*     PTCLDY    78  76  93 CALM      30.01R HX  80
MARION         CLOUDY    77  75  94 CALM      30.00R FOG
MT. VERNON     CLOUDY    75  70  83 MISG      29.98R
CENTRALIA*     MOCLDY    78  76  95 CALM      29.99R HX  80
SALEM*         CLOUDY    81  76  86 CALM      29.99R HX  87
METROPOLIS*    PTCLDY    75  74  96 CALM      30.00R
$$

ILZ067-068-072-073-078-083-087-091-270300-
SOUTHEAST ILLINOIS

CITY           SKY/WX    TMP DP  RH WIND       PRES   REMARKS
LAWRENCEVILLE  CLOUDY    78  74  87 N5        29.99R HX  81
FLORA*         CLOUDY    78  76  93 CALM      30.00R HX  81
FAIRFIELD*     MOCLDY    75  74  96 CALM      29.97R
HARRISBURG*    CLOUDY    76  76 100 CALM      29.99R FOG
ROBINSON*      MOCLDY    76  73  91 NE3       30.00R
CARMI*         CLOUDY    75  75 100 CALM      29.98R
$$

ABBREVIATIONS USED IN REMARKS
   TC - TEMPERATURE IN CELSIUS
  WCI - WIND CHILL INDEX
   HX - HEAT INDEX
  VSB - VISIBILITY
$$




USA.gov is the U.S. government's official web portal to all federal, state and local government web resources and services.